TimePDT,TemperatureF,Dew PointF,Humidity,Sea Level PressureIn,VisibilityMPH,Wind Direction,Wind SpeedMPH,Gust SpeedMPH,PrecipitationIn,Events,Conditions,WindDirDegrees,DateUTC
12:53 AM,62.1,51.1,67,29.88,10.0,ESE,3.5,-,N/A,,Clear,110,2013-09-07 07:53:00
1:53 AM,60.1,51.1,72,29.88,10.0,East,4.6,-,N/A,,Clear,100,2013-09-07 08:53:00
2:53 AM,63.0,51.1,65,29.88,10.0,Calm,Calm,-,N/A,,Clear,0,2013-09-07 09:53:00
3:53 AM,61.0,51.1,70,29.87,10.0,Calm,Calm,-,N/A,,Clear,0,2013-09-07 10:53:00
4:53 AM,60.1,51.1,72,29.87,10.0,Calm,Calm,-,N/A,,Clear,0,2013-09-07 11:53:00
5:53 AM,60.1,50.0,69,29.88,10.0,Calm,Calm,-,N/A,,Clear,0,2013-09-07 12:53:00
6:53 AM,57.9,51.1,78,29.90,10.0,NW,4.6,-,N/A,,Clear,310,2013-09-07 13:53:00
7:53 AM,61.0,53.1,75,29.91,9.0,Calm,Calm,-,N/A,,Clear,0,2013-09-07 14:53:00
8:53 AM,66.0,53.1,63,29.91,10.0,Calm,Calm,-,N/A,,Clear,0,2013-09-07 15:53:00
9:53 AM,71.1,52.0,51,29.91,10.0,Calm,Calm,-,N/A,,Clear,0,2013-09-07 16:53:00
10:53 AM,75.9,52.0,43,29.91,10.0,Calm,Calm,-,N/A,,Clear,0,2013-09-07 17:53:00
11:53 AM,82.9,50.0,32,29.90,10.0,WSW,3.5,-,N/A,,Clear,250,2013-09-07 18:53:00
12:53 PM,75.9,55.9,50,29.89,10.0,WNW,13.8,-,N/A,,Clear,290,2013-09-07 19:53:00
1:53 PM,75.0,55.0,50,29.90,10.0,NW,15.0,-,N/A,,Clear,310,2013-09-07 20:53:00
2:53 PM,71.1,55.9,59,29.90,10.0,WNW,16.1,-,N/A,,Clear,290,2013-09-07 21:53:00
3:53 PM,72.0,55.9,57,29.89,9.0,WNW,12.7,-,N/A,,Clear,290,2013-09-07 22:53:00
4:53 PM,69.1,55.9,63,29.88,9.0,WNW,15.0,-,N/A,,Clear,290,2013-09-07 23:53:00
5:53 PM,68.0,57.0,68,29.88,8.0,NW,11.5,-,N/A,,Clear,310,2013-09-08 00:53:00
6:53 PM,63.0,57.0,81,29.89,8.0,WNW,11.5,-,N/A,,Clear,300,2013-09-08 01:53:00
7:07 PM,62.6,57.2,82,29.86,7.0,WNW,9.2,-,N/A,,Scattered Clouds,300,2013-09-08 02:07:00
7:17 PM,62.6,57.2,82,29.86,7.0,WNW,10.4,-,N/A,,Mostly Cloudy,290,2013-09-08 02:17:00
7:53 PM,61.0,57.9,90,29.90,7.0,WNW,10.4,-,N/A,,Mostly Cloudy,290,2013-09-08 02:53:00
8:37 PM,60.8,57.2,88,29.88,3.0,WNW,9.2,-,N/A,,Overcast,290,2013-09-08 03:37:00
8:53 PM,61.0,57.9,90,29.91,5.0,WNW,9.2,-,N/A,,Overcast,290,2013-09-08 03:53:00
9:53 PM,61.0,57.0,87,29.92,7.0,West,8.1,-,N/A,,Overcast,270,2013-09-08 04:53:00
10:53 PM,60.1,57.0,90,29.92,6.0,WNW,5.8,-,N/A,,Overcast,290,2013-09-08 05:53:00
11:53 PM,59.0,57.0,93,29.92,5.0,West,4.6,-,N/A,,Overcast,260,2013-09-08 06:53:00